Home > Time Zones > World Clock > Weather > India > Patna > Past weeks

Flag for India Weather past 2 weeks in Patna, Bihar, India

Now
95 °F

Scattered clouds.


Feels Like: 116 °F
Forecast: 81 / 92 °F
Wind: 9 mph from Southeast

Location: Patna Airport

Current Time: Aug 29, 2014 at 1:44:09 PM

Latest Report: Aug 29, 2014 at 1:20 PM


Visibility: 4 mi

Pressure: 29.59 "Hg

Humidity: 63%

Dew point: 81 °F

Location of PatnaLocation

Historic Weather in Patna — Graph

°F

Patna temperature yesterday

Maximum temperature yesterday: 95 °F (at 12:20 PM)
Minimum temperature yesterday: 82 °F (at 5:20 AM)
Average temperature yesterday: 88 °F

Past Weeks' High & Low Weather Summary

 TemperatureHumidityPressure
High95 °F (Aug 24, 1:20 PM)100% (Aug 14, 12:20 PM)29.77 "Hg (Aug 14, 12:20 PM)
Low77 °F (Aug 14, 12:20 PM)54% (Aug 15, 7:20 AM)29.50 "Hg (Aug 14, 4:20 PM)
Average86 °F83%29.62 "Hg
* Reported Aug 14 12:20 PM — Aug 29 12:20 PM, Patna, Weather by CustomWeather, © 2014

Note: Actual official high and low records may vary slightly from our data, if they occured in-between our weather recording intervals... More about our weather records

Advertising

Patna weather history for previous 24 hours

 ConditionsComfort  
Time TempWeatherWind HumidityBarometerVisibility
12:20 PM
Aug 29
91 °FScattered clouds.12 mph63%29.62 "Hg4 mi
11:20 AM91 °FScattered clouds.9 mph63%29.62 "Hg3 mi
10:20 AM91 °FScattered clouds.9 mph67%29.65 "Hg3 mi
9:20 AM90 °FScattered clouds.9 mph71%29.65 "Hg2 mi
8:20 AM88 °FScattered clouds.10 mph75%29.65 "Hg2 mi
7:20 AM84 °FBroken clouds.7 mph84%29.65 "Hg1 mi
6:20 AM82 °FBroken clouds.6 mph89%29.65 "Hg1 mi
5:20 AM82 °FPartly cloudy.6 mph89%29.65 "Hg1 mi
9:20 PM
Aug 28
84 °FThundershowers. Partly cloudy.7 mph89%29.62 "Hg2 mi
8:20 PM84 °FThundershowers. Partly cloudy.7 mph89%29.62 "Hg2 mi
7:20 PM84 °FPartly cloudy.7 mph84%29.59 "Hg2 mi
6:20 PM86 °FBroken clouds.5 mph84%29.59 "Hg2 mi
5:20 PM86 °FBroken clouds.7 mph84%29.56 "Hg2 mi
4:20 PM90 °FBroken clouds.7 mph75%29.56 "Hg2 mi
2:20 PM93 °FBroken clouds.9 mph67%29.59 "Hg2 mi
1:20 PM95 °FScattered clouds.9 mph67%29.62 "Hg3 mi
Weather by CustomWeather, © 2014

See weather overviewHow to use our weather pages